Location: Carnetin
(48.9010°N, 2.7059°E)
Time: 05:10:16
(UTC+00:00)

USA 229 - Pass Details

Date: 29 May 2022
Orbit: 938 x 1274 km, 63.4° (Epoch: 24 May)

Event Time Altitude Azimuth Distance (km) Brightness Sun altitude
Rises 20:09:09 0° 303° (WNW) 3,816 9.1 -4.4°
Reaches altitude 10° 20:12:13 10° 315° (NW) 2,917 7.9 -4.8°
Maximum altitude 20:17:57 26° 11° (NNE) 2,049 5.6 -5.5°
Drops below altitude 10° 20:24:04 10° 67° (ENE) 3,119 5.9 -6.2°
Sets 20:27:28 0° 79° (E) 4,132 6.4 -6.6°
